This is the latest recevied weather packets stored in our database for station/object SQ6RR-12. If no packets are shown the sender has not sent any weather packets the latest 1 day(s).
| Time | Temp. | Humidity | Pressure | Rain* | Wind** | Luminosity | Snow |
|---|---|---|---|---|---|---|---|
| 1778064501 | 19.44° C | 82% | 1008.1 hPa | 0 mm | - | - | - |
| 1778063382 | 19.44° C | 79% | 1008 hPa | 0 mm | - | - | - |
| 1778062602 | 17.78° C | 92% | 1008.2 hPa | 0 mm | - | - | - |
| 1778062325 | 17.78° C | 89% | 1008.2 hPa | 0 mm | - | - | - |
| 1778062078 | 17.78° C | 88% | 1008.3 hPa | 0 mm | - | - | - |
| 1778061812 | 18.33° C | 86% | 1008.2 hPa | 0 mm | - | - | - |
| 1778061534 | 18.89° C | 84% | 1008.2 hPa | 0 mm | - | - | - |
| 1778060446 | 18.89° C | 84% | 1008.2 hPa | 0 mm | - | - | - |
| 1778060184 | 18.89° C | 87% | 1008.1 hPa | 0 mm | - | - | - |
| 1778059678 | 18.89° C | 86% | 1008.1 hPa | 0 mm | - | - | - |
| 1778059151 | 18.33° C | 98% | 1007.9 hPa | 0 mm | - | - | - |
| 1778058082 | 17.22° C | 10% | 1007.7 hPa | 0 mm | - | - | - |
| 1778057802 | 16.67° C | 10% | 1007.6 hPa | 0 mm | - | - | - |
| 1778056441 | 16.11° C | 10% | 1007.9 hPa | 0 mm | - | - | - |
| 1778055627 | 16.67° C | 10% | 1007.8 hPa | 0 mm | - | - | - |
| 1778055342 | 16.11° C | 10% | 1007.7 hPa | 0 mm | - | - | - |
| 1778054801 | 16.11° C | 10% | 1007.6 hPa | 0 mm | - | - | - |
| 1778054241 | 16.67° C | 10% | 1007.6 hPa | 0 mm | - | - | - |
| 1778053455 | 16.67° C | 10% | 1007.6 hPa | 0 mm | - | - | - |
| 1778052612 | 15.56° C | 10% | 1007.4 hPa | 0 mm | - | - | - |
| 1778051545 | 16.11° C | 10% | 1007.1 hPa | 0 mm | - | - | - |
| 1778050715 | 16.11° C | 10% | 1007.1 hPa | 0 mm | - | - | - |
| 1778049640 | 15° C | 10% | 1007.1 hPa | 0 mm | - | - | - |
| 1778048547 | 14.44° C | 10% | 1007 hPa | 0 mm | - | - | - |
| 1778048256 | 14.44° C | 10% | 1007.1 hPa | 0 mm | - | - | - |
* Rain latest hour (hover to see other rain measurements)
** Current wind speed in m/s (hover to see current wind gust speed)